GW4947 Weather Reports


time (UTC)temp
F
wind
direction
speed
knots
gust
knots
rain 1hr
in
rain 24hr
in
rain mn
in
humidity
%
barometer
mb
20260504081824 101 44 1.7 1.7 0.00 0.00 0.00 49 1006.0
20260504081322 100 127 0.9 0.9 0.00 0.00 0.00 50 1006.0
20260504080822 100 68 0.9 0.9 0.00 0.00 0.00 49 1006.0
20260504080323 99 89 0.9 0.9 0.00 0.00 0.00 50 1006.0
20260504070324 98 220 1.7 1.7 0.00 0.00 0.00 52 1007.0
20260504050322 94 151 1.7 2.6 0.00 0.00 0.00 55 1009.0
20260504045822 93 135 0.9 0.9 0.00 0.00 0.00 54 1009.0
20260504045322 92 65 0.9 1.7 0.00 0.00 0.00 55 1009.0
20260504044822 93 119 0.9 0.9 0.00 0.00 0.00 54 1009.0
20260504044322 93 121 0.9 0.9 0.00 0.00 0.00 55 1009.0
20260504043822 92 94 0.9 0.9 0.00 0.00 0.00 56 1009.0
20260504043322 92 139 0.9 0.9 0.00 0.00 0.00 55 1009.0
20260504042822 92 69 1.7 1.7 0.00 0.00 0.00 56 1009.0
20260504042322 91 329 1.7 1.7 0.00 0.00 0.00 56 1009.0
20260504041822 91 30 2.6 2.6 0.00 0.00 0.00 57 1009.0
20260504041322 91 136 0.9 0.9 0.00 0.00 0.00 57 1009.0
20260504040822 91 269 0.9 1.7 0.00 0.00 0.00 58 1009.0
20260504040323 91 54 0.9 1.7 0.00 0.00 0.00 57 1009.0
20260504035823 90 103 0.9 0.9 0.00 0.00 0.00 60 1009.0
20260504035322 90 68 1.7 2.6 0.00 0.00 0.00 59 1009.0
20260504034822 89 133 0.9 0.9 0.00 0.00 0.00 61 1009.0
20260504034322 89 125 1.7 2.6 0.00 0.00 0.00 60 1009.0
20260504033822 89 140 0.0 0.0 0.00 0.00 0.00 60 1009.0
20260504033323 89 149 1.7 1.7 0.00 0.00 0.00 61 1009.0
20260504032823 88 123 0.9 0.9 0.00 0.00 0.00 63 1009.0
20260504032323 88 192 1.7 2.6 0.00 0.00 0.00 62 1009.0
20260504031822 88 193 2.6 2.6 0.00 0.00 0.00 62 1009.0
20260504031322 87 88 0.9 1.7 0.00 0.00 0.00 63 1009.0
20260504030823 87 123 0.0 0.0 0.00 0.00 0.00 63 1009.0
20260504030323 87 93 0.9 0.9 0.00 0.00 0.00 63 1009.0
20260504025823 87 126 0.0 0.9 0.00 0.00 0.00 63 1009.0
20260504025322 86 125 0.0 0.0 0.00 0.00 0.00 64 1009.0
20260504024823 86 125 0.9 0.9 0.00 0.00 0.00 64 1009.0
20260504024322 85 117 0.0 0.9 0.00 0.00 0.00 65 1008.0
20260504023822 85 166 0.9 0.9 0.00 0.00 0.00 65 1009.0
20260504023322 84 31 0.9 0.9 0.00 0.00 0.00 66 1008.0
20260504022822 85 115 0.9 1.7 0.00 0.00 0.00 67 1008.0
20260504022322 85 209 1.7 1.7 0.00 0.00 0.00 66 1008.0
20260504021823 85 126 0.0 0.0 0.00 0.00 0.00 66 1008.0
20260504021322 84 127 0.0 0.0 0.00 0.00 0.00 68 1008.0
20260504020822 83 136 0.9 1.7 0.00 0.00 0.00 69 1008.0
20260504020323 83 126 0.0 0.9 0.00 0.00 0.00 68 1008.0
20260504015822 83 121 0.0 0.0 0.00 0.00 0.00 68 1008.0
20260504015322 83 130 0.9 0.9 0.00 0.00 0.00 68 1008.0
20260504014822 82 124 0.0 0.0 0.00 0.00 0.00 69 1008.0
20260504014323 82 133 0.0 0.0 0.00 0.00 0.00 70 1008.0
20260504013823 82 125 0.0 0.9 0.00 0.00 0.00 72 1007.0
20260504013323 81 126 0.0 0.0 0.00 0.00 0.00 74 1007.0
20260504012822 81 119 0.0 0.0 0.00 0.00 0.00 74 1008.0
20260504012322 81 119 0.0 0.0 0.00 0.00 0.00 75 1007.0
20260504011822 80 114 0.0 0.0 0.00 0.00 0.00 76 1007.0
20260504011322 80 108 0.0 0.9 0.00 0.00 0.00 77 1007.0
20260504010824 80 119 0.0 0.0 0.00 0.00 0.00 78 1007.0
20260504010323 79 105 0.0 0.0 0.00 0.00 0.00 79 1007.0
20260504005823 79 106 0.9 0.9 0.00 0.00 0.00 79 1007.0
20260504005324 78 117 0.0 0.0 0.00 0.00 0.00 80 1007.0
20260504004822 78 123 0.0 0.0 0.00 0.00 0.00 80 1007.0
20260504004322 78 123 0.0 0.0 0.00 0.00 0.00 80 1007.0
20260504003822 79 125 0.0 0.9 0.00 0.00 0.00 79 1007.0
20260504003323 79 132 0.9 0.9 0.00 0.00 0.00 78 1007.0
20260504002822 79 109 0.9 0.9 0.00 0.00 0.00 76 1007.0
20260504002323 79 119 0.0 0.0 0.00 0.00 0.00 76 1007.0
20260504001823 80 117 0.0 0.9 0.00 0.00 0.00 75 1007.0
20260504001322 80 95 0.0 0.0 0.00 0.00 0.00 75 1007.0
20260504000823 80 122 0.0 0.0 0.00 0.00 0.00 73 1007.0
20260504000322 79 137 0.0 0.9 0.00 0.00 0.00 74 1007.0
20260503235822 79 121 0.9 0.9 0.00 0.00 0.00 75 1007.0
20260503235322 79 125 0.0 0.0 0.00 0.00 0.00 74 1007.0
20260503234822 79 123 0.0 0.0 0.00 0.00 0.00 74 1007.0
20260503234325 79 132 0.0 0.9 0.00 0.00 0.00 74 1007.0
20260503233822 80 131 0.0 0.0 0.00 0.00 0.00 74 1007.0
20260503233322 80 125 0.0 0.9 0.00 0.00 0.00 72 1006.0
20260503232822 80 131 0.9 0.9 0.00 0.00 0.00 72 1006.0
20260503232323 80 117 0.0 0.0 0.00 0.00 0.00 72 1006.0
20260503231823 80 137 0.0 0.0 0.00 0.00 0.00 72 1006.0
20260503231323 80 116 0.9 0.9 0.00 0.00 0.00 72 1006.0
20260503230822 80 116 0.0 0.0 0.00 0.00 0.00 73 1006.0
20260503230322 80 127 0.0 0.0 0.00 0.00 0.00 73 1006.0
20260503225822 80 122 0.0 0.0 0.00 0.00 0.00 73 1006.0
20260503225323 80 118 0.0 0.0 0.00 0.00 0.00 74 1006.0
20260503224823 80 144 0.9 0.9 0.00 0.00 0.00 73 1006.0
20260503224322 80 136 0.9 1.7 0.00 0.00 0.00 74 1006.0
20260503223822 80 79 0.9 1.7 0.00 0.00 0.00 74 1005.0
20260503223323 80 82 1.7 1.7 0.00 0.00 0.00 74 1005.0
20260503222822 80 119 0.0 0.0 0.00 0.00 0.00 74 1005.0
20260503222322 80 149 0.0 0.9 0.00 0.00 0.00 74 1005.0
20260503221822 80 137 0.0 0.0 0.00 0.00 0.00 74 1005.0
20260503221323 80 164 1.7 1.7 0.00 0.00 0.00 73 1005.0
20260503220823 80 136 1.7 1.7 0.00 0.00 0.00 75 1005.0
20260503220322 80 111 0.0 0.0 0.00 0.00 0.00 75 1005.0
20260503215823 80 139 0.9 0.9 0.00 0.00 0.00 76 1005.0
20260503215323 81 111 0.9 0.9 0.00 0.00 0.00 77 1005.0
20260503214823 81 134 0.0 0.9 0.00 0.00 0.00 77 1005.0
20260503214326 81 109 0.9 0.9 0.00 0.00 0.00 77 1005.0
20260503213822 81 177 0.9 1.7 0.00 0.00 0.00 78 1005.0
20260503213323 81 147 0.9 0.9 0.00 0.00 0.00 84 1005.0
20260503212822 83 160 2.6 2.6 0.00 0.00 0.00 87 1005.0
20260503212323 83 129 0.9 0.9 0.00 0.00 0.00 88 1005.0
20260503211824 83 135 0.9 0.9 0.00 0.00 0.00 87 1005.0
20260503211322 83 139 0.9 0.9 0.00 0.00 0.00 87 1005.0
20260503210822 83 148 0.9 1.7 0.00 0.00 0.00 87 1005.0
20260503210322 83 150 0.9 1.7 0.00 0.00 0.00 87 1005.0
20260503205822 83 147 1.7 1.7 0.00 0.00 0.00 87 1006.0
20260503205323 84 156 2.6 2.6 0.00 0.00 0.00 87 1006.0
20260503204822 84 124 0.9 0.9 0.00 0.00 0.00 87 1006.0
20260503204322 84 124 0.9 1.7 0.00 0.00 0.00 87 1006.0
20260503203822 84 124 0.0 0.9 0.00 0.00 0.00 86 1006.0
20260503203322 84 122 2.6 2.6 0.00 0.00 0.00 87 1006.0
20260503202822 84 140 0.9 0.9 0.00 0.00 0.00 86 1006.0
20260503202322 84 160 0.9 1.7 0.00 0.00 0.00 86 1006.0
20260503201822 84 138 0.9 0.9 0.00 0.00 0.00 86 1006.0
20260503201323 84 172 2.6 2.6 0.00 0.00 0.00 86 1007.0
20260503200822 84 142 0.9 0.9 0.00 0.00 0.00 86 1006.0
20260503200322 84 128 0.0 0.9 0.00 0.00 0.00 86 1007.0
20260503195824 84 124 0.0 0.9 0.00 0.00 0.00 86 1007.0
20260503195322 84 124 0.0 0.0 0.00 0.00 0.00 86 1007.0
20260503194822 84 126 0.0 0.0 0.00 0.00 0.00 87 1007.0
20260503194322 84 144 0.9 0.9 0.00 0.00 0.00 87 1007.0
20260503193822 84 148 0.9 0.9 0.00 0.00 0.00 86 1007.0
20260503193322 85 127 0.0 0.0 0.00 0.00 0.00 85 1007.0
20260503192823 85 121 0.0 0.0 0.00 0.00 0.00 85 1007.0
20260503192322 85 127 0.0 0.0 0.00 0.00 0.00 85 1007.0
20260503191822 85 131 0.0 0.0 0.00 0.00 0.00 84 1007.0
20260503191323 86 133 0.9 0.9 0.00 0.00 0.00 84 1008.0
20260503190822 86 116 0.0 0.0 0.00 0.00 0.00 82 1007.0
20260503190322 87 125 0.0 0.0 0.00 0.00 0.00 80 1008.0
20260503185822 88 124 0.0 0.0 0.00 0.00 0.00 78 1008.0
20260503185323 87 128 0.0 0.0 0.00 0.00 0.00 79 1008.0
20260503184823 87 121 0.0 0.9 0.00 0.00 0.00 79 1008.0
20260503184322 87 116 0.0 0.9 0.00 0.00 0.00 81 1008.0
20260503183822 87 97 0.9 0.9 0.00 0.00 0.00 80 1008.0
20260503183323 87 161 0.9 0.9 0.00 0.00 0.00 81 1008.0
20260503182823 87 123 0.9 0.9 0.00 0.00 0.00 81 1008.0
20260503182322 86 115 0.0 0.0 0.00 0.00 0.00 83 1008.0
20260503181823 86 237 0.9 1.7 0.00 0.00 0.00 83 1008.0
20260503181323 86 253 2.6 2.6 0.00 0.00 0.00 83 1008.0
20260503180822 86 114 0.9 0.9 0.00 0.00 0.00 82 1009.0
20260503180322 87 110 0.9 0.9 0.00 0.00 0.00 82 1009.0
20260503175822 87 125 0.0 0.0 0.00 0.00 0.00 80 1009.0
20260503175322 86 117 0.0 0.0 0.00 0.00 0.00 82 1009.0
20260503174823 87 121 0.0 0.0 0.00 0.00 0.00 81 1009.0
20260503174322 87 139 0.0 0.0 0.00 0.00 0.00 80 1009.0
20260503173822 87 125 0.0 0.0 0.00 0.00 0.00 80 1009.0
20260503173325 87 129 0.0 0.0 0.00 0.00 0.00 81 1009.0
20260503172822 88 132 0.0 0.0 0.00 0.00 0.00 79 1009.0
20260503172323 88 125 0.0 0.0 0.00 0.00 0.00 78 1009.0
20260503171823 86 123 0.0 0.0 0.00 0.00 0.00 81 1009.0
20260503171322 86 125 0.0 0.0 0.00 0.00 0.00 81 1008.0
20260503170822 86 124 0.0 0.0 0.00 0.00 0.00 80 1009.0
20260503170322 87 125 0.0 0.0 0.00 0.00 0.00 79 1009.0
20260503150822 87 134 1.7 2.6 0.00 0.00 0.00 78 1007.0
20260503150322 87 146 1.7 1.7 0.00 0.00 0.00 78 1006.0
20260503131322 90 141 1.7 2.6 0.00 0.00 0.00 69 1004.0
20260503130822 91 88 2.6 7.0 0.00 0.00 0.00 67 1004.0
20260503130322 91 129 2.6 4.3 0.00 0.00 0.00 65 1004.0
20260503110823 96 155 1.7 1.7 0.00 0.00 0.00 51 1003.0
20260503110323 96 94 1.7 1.7 0.00 0.00 0.00 50 1003.0